TimeCST,TemperatureF,Dew PointF,Humidity,Sea Level PressureIn,VisibilityMPH,Wind Direction,Wind SpeedMPH,Gust SpeedMPH,PrecipitationIn,Events,Conditions,WindDirDegrees,DateUTC
12:15 AM,28.4,23.0,80,30.12,10.0,Calm,Calm,-,N/A,,Clear,0,2012-12-14 06:15:00
12:35 AM,28.4,23.0,80,30.11,10.0,Calm,Calm,-,N/A,,Clear,0,2012-12-14 06:35:00
12:55 AM,28.4,23.0,80,30.11,10.0,Calm,Calm,-,N/A,,Clear,0,2012-12-14 06:55:00
1:15 AM,28.4,23.0,80,30.10,10.0,ESE,3.5,-,N/A,,Clear,110,2012-12-14 07:15:00
1:35 AM,28.4,23.0,80,30.10,10.0,Calm,Calm,-,N/A,,Clear,0,2012-12-14 07:35:00
1:55 AM,30.2,23.0,75,30.10,10.0,Calm,Calm,-,N/A,,Clear,0,2012-12-14 07:55:00
2:15 AM,30.2,24.8,80,30.10,10.0,Calm,Calm,-,N/A,,Clear,0,2012-12-14 08:15:00
2:35 AM,32.0,26.6,80,30.11,10.0,East,3.5,-,N/A,,Clear,90,2012-12-14 08:35:00
2:55 AM,33.8,26.6,75,30.11,10.0,ESE,3.5,-,N/A,,Clear,120,2012-12-14 08:55:00
3:15 AM,32.0,26.6,80,30.10,10.0,ESE,3.5,-,N/A,,Clear,110,2012-12-14 09:15:00
3:35 AM,32.0,26.6,80,30.09,10.0,ESE,4.6,-,N/A,,Clear,120,2012-12-14 09:35:00
3:55 AM,32.0,26.6,80,30.09,10.0,ESE,3.5,-,N/A,,Clear,120,2012-12-14 09:55:00
4:15 AM,32.0,26.6,80,30.08,10.0,ESE,3.5,-,N/A,,Clear,120,2012-12-14 10:15:00
4:35 AM,30.2,24.8,80,30.08,10.0,ESE,3.5,-,N/A,,Clear,120,2012-12-14 10:35:00
4:55 AM,30.2,24.8,80,30.08,10.0,ESE,4.6,-,N/A,,Clear,120,2012-12-14 10:55:00
5:15 AM,30.2,24.8,80,30.08,10.0,ESE,3.5,-,N/A,,Clear,120,2012-12-14 11:15:00
5:35 AM,32.0,24.8,75,30.08,10.0,SE,3.5,-,N/A,,Clear,130,2012-12-14 11:35:00
5:55 AM,32.0,26.6,80,30.08,10.0,ESE,3.5,-,N/A,,Clear,110,2012-12-14 11:55:00
6:15 AM,32.0,26.6,80,30.08,10.0,Calm,Calm,-,N/A,,Clear,0,2012-12-14 12:15:00
6:35 AM,35.6,26.6,70,30.08,10.0,ESE,4.6,-,N/A,,Clear,120,2012-12-14 12:35:00
6:55 AM,35.6,26.6,70,30.09,10.0,ESE,4.6,-,N/A,,Clear,110,2012-12-14 12:55:00
7:15 AM,33.8,26.6,75,30.09,10.0,ESE,4.6,-,N/A,,Clear,120,2012-12-14 13:15:00
7:35 AM,35.6,26.6,70,30.09,10.0,ESE,4.6,-,N/A,,Clear,120,2012-12-14 13:35:00
7:55 AM,35.6,26.6,70,30.08,10.0,SE,4.6,-,N/A,,Clear,130,2012-12-14 13:55:00
8:15 AM,35.6,26.6,70,30.08,10.0,SE,4.6,-,N/A,,Clear,130,2012-12-14 14:15:00
8:35 AM,37.4,26.6,65,30.07,10.0,SE,4.6,-,N/A,,Clear,130,2012-12-14 14:35:00
8:55 AM,37.4,26.6,65,30.07,10.0,ESE,4.6,-,N/A,,Clear,120,2012-12-14 14:55:00
9:15 AM,41.0,28.4,61,30.07,10.0,SE,4.6,-,N/A,,Clear,140,2012-12-14 15:15:00
9:35 AM,41.0,28.4,61,30.07,10.0,SSE,6.9,-,N/A,,Clear,150,2012-12-14 15:35:00
9:55 AM,42.8,28.4,57,30.07,10.0,SSE,5.8,-,N/A,,Clear,160,2012-12-14 15:55:00
10:15 AM,44.6,28.4,53,30.07,10.0,SSE,4.6,-,N/A,,Clear,150,2012-12-14 16:15:00
10:35 AM,44.6,28.4,53,30.06,10.0,SE,4.6,-,N/A,,Clear,140,2012-12-14 16:35:00
10:55 AM,46.4,28.4,50,30.05,10.0,SSE,5.8,-,N/A,,Clear,150,2012-12-14 16:55:00
11:15 AM,46.4,28.4,50,30.05,10.0,South,6.9,-,N/A,,Clear,170,2012-12-14 17:15:00
11:35 AM,50.0,30.2,47,30.04,10.0,South,8.1,-,N/A,,Clear,170,2012-12-14 17:35:00
11:55 AM,50.0,30.2,47,30.02,10.0,SSE,9.2,-,N/A,,Scattered Clouds,150,2012-12-14 17:55:00
12:15 PM,50.0,30.2,47,30.02,10.0,SSE,8.1,-,N/A,,Overcast,160,2012-12-14 18:15:00
12:35 PM,50.0,30.2,47,30.01,10.0,SSE,8.1,-,N/A,,Overcast,160,2012-12-14 18:35:00
12:55 PM,50.0,30.2,47,29.99,10.0,SSE,9.2,-,N/A,,Overcast,160,2012-12-14 18:55:00
1:15 PM,50.0,30.2,47,29.98,10.0,South,8.1,-,N/A,,Overcast,170,2012-12-14 19:15:00
1:35 PM,50.0,30.2,47,29.97,10.0,SSE,6.9,-,N/A,,Mostly Cloudy,150,2012-12-14 19:35:00
1:55 PM,50.0,30.2,47,29.95,10.0,SSE,9.2,-,N/A,,Overcast,160,2012-12-14 19:55:00
2:15 PM,51.8,30.2,44,29.94,10.0,SSE,9.2,-,N/A,,Overcast,160,2012-12-14 20:15:00
2:35 PM,51.8,30.2,44,29.92,10.0,SSE,8.1,-,N/A,,Overcast,160,2012-12-14 20:35:00
2:55 PM,51.8,30.2,44,29.92,10.0,SSE,6.9,-,N/A,,Overcast,160,2012-12-14 20:55:00
3:15 PM,51.8,30.2,44,29.91,10.0,SSE,5.8,-,N/A,,Overcast,150,2012-12-14 21:15:00
3:35 PM,51.8,30.2,44,29.91,10.0,SSE,8.1,-,N/A,,Overcast,160,2012-12-14 21:35:00
3:55 PM,51.8,32.0,47,29.91,10.0,SSE,4.6,-,N/A,,Overcast,150,2012-12-14 21:55:00
4:15 PM,50.0,35.6,58,29.91,10.0,SSE,8.1,17.3,N/A,,Overcast,150,2012-12-14 22:15:00
4:35 PM,50.0,35.6,58,29.91,10.0,SSE,6.9,16.1,N/A,,Overcast,160,2012-12-14 22:35:00
4:55 PM,50.0,33.8,54,29.89,10.0,SSE,6.9,-,N/A,,Overcast,150,2012-12-14 22:55:00
5:15 PM,51.8,32.0,47,29.89,10.0,SSE,4.6,-,N/A,,Overcast,150,2012-12-14 23:15:00
5:35 PM,51.8,32.0,47,29.88,10.0,SE,4.6,-,N/A,,Overcast,130,2012-12-14 23:35:00
5:55 PM,50.0,33.8,54,29.87,10.0,ESE,5.8,-,N/A,,Overcast,120,2012-12-14 23:55:00
6:35 PM,51.8,33.8,50,29.87,10.0,SE,5.8,-,N/A,,Overcast,130,2012-12-15 00:35:00
6:55 PM,51.8,35.6,54,29.87,10.0,SE,5.8,-,N/A,,Unknown,130,2012-12-15 00:55:00
7:15 PM,51.8,35.6,54,29.87,10.0,SE,5.8,-,N/A,,Overcast,130,2012-12-15 01:15:00
7:35 PM,51.8,35.6,54,29.87,10.0,SE,6.9,-,N/A,,Overcast,140,2012-12-15 01:35:00
7:55 PM,51.8,33.8,50,29.87,10.0,SSE,9.2,-,N/A,,Overcast,150,2012-12-15 01:55:00
8:15 PM,51.8,32.0,47,29.84,10.0,SE,8.1,-,N/A,,Mostly Cloudy,140,2012-12-15 02:15:00
8:55 PM,50.0,32.0,50,29.81,10.0,SE,9.2,-,N/A,,Scattered Clouds,140,2012-12-15 02:55:00
9:15 PM,50.0,32.0,50,29.82,10.0,SSE,9.2,-,N/A,,Mostly Cloudy,150,2012-12-15 03:15:00
9:35 PM,50.0,33.8,54,29.80,10.0,SE,8.1,-,N/A,,Overcast,140,2012-12-15 03:35:00
9:55 PM,48.2,37.4,66,29.80,7.0,SSE,9.2,18.4,N/A,Rain,Light Rain,150,2012-12-15 03:55:00
10:15 PM,48.2,39.2,71,29.78,10.0,SSE,9.2,18.4,N/A,Rain,Light Rain,150,2012-12-15 04:15:00
10:35 PM,46.4,39.2,76,29.77,10.0,SE,15.0,25.3,N/A,Rain,Light Rain,140,2012-12-15 04:35:00
10:55 PM,44.6,41.0,87,29.74,4.0,SE,13.8,29.9,N/A,Rain,Rain,140,2012-12-15 04:55:00
11:15 PM,42.8,41.0,93,29.75,5.0,SE,15.0,20.7,N/A,Rain,Rain,140,2012-12-15 05:15:00
11:35 PM,42.8,41.0,93,29.73,2.5,ESE,8.1,11.5,N/A,Rain,Rain,120,2012-12-15 05:35:00
11:55 PM,42.8,41.0,93,29.73,3.0,SSE,5.8,-,N/A,Rain,Heavy Rain,150,2012-12-15 05:55:00